Location: Pittman
(37.9557°N, 80.9209°W)
Time: 14:55:12
(UTC+00:00)

Envisat - Pass Details

Date: 20 April 2026
Orbit: 761 x 762 km, 98.4° (Epoch: 15 May)

Event Time Altitude Azimuth Distance (km) Brightness Sun altitude
Rises 06:33:05 0° 38° (NE) 3,228 7.1 -37.8°
Reaches altitude 10° 06:37:15 10° 72° (ENE) 2,295 5.8 -37.5°
Enters shadow 06:38:01 11° 80° (E) 2,225 5.7 -37.4°
